Content
SEND FEEDBACK

Daily
Averages
Monthly
Summary
United States of America

ST. LOUIS, MISSOURI


Home > North America > United States > Missouri
Elevation: 163 meters     Latitude: 38 45N     Longitude: 090 22W

WEATHER
 
SELECT A DAY
Number of Records: 196,500;   Date Range: 1/1/95 - 8/30/14
 
SHARE

PRINT THIS DATA

[ ← Previous Day ]
WEATHER ALMANAC - 23 APRIL, 2013
[ Next Day → ]
[ °F ]   °C
Weather ElementAverageHighLow
Temperature9.3 °C15 °C (1:54 pm)4 °C (10:56 pm)
Dewpoint7.2 °C12.8 °C (1:54 pm)2.8 °C (10:54 pm)
Humidity86.9 %94 % (10:51 am)64 % (4:54 am)
Barometer1014.6 hPa1017.6 hPa (10:54 pm)1012.5 hPa (1:54 pm)
Wind Speed10.3 km/h24.1 km/h (5:39 pm)
Wind Gust35.2 km/h (3:54 pm)
Weather ElementAverage
Visibility11.4 km
Wind DirectionSSW (197.4 °)

Weather ElementTotal
Precipitation20.57 mm
Heating Degree Days8.8 (Base 18.3)
Averaged from 35 records on 23 April, 2013
WEATHER CONDITIONS BREAKOUT
WIND DIRECTION BREAKOUT
WEATHER BY HOUR - 23 APRIL, 2013
[ °F ]   °C
Local TimeTemperatureDewpointHumidityBarometerVisibilityWind DirectionWind SpeedGust SpeedPrecipitationEventsConditions
1:54 AM11.7 °C7.8 °C77 %1015.2 hPa16.1 kmCalmPartly Cloudy
2:54 AM11.7 °C8.3 °C80 %1015.2 hPa16.1 kmCalmMostly Cloudy
3:54 AM12.2 °C8.3 °C77 %1014.6 hPa16.1 kmCalmOvercast
4:54 AM13.9 °C7.2 °C64 %1013.5 hPa16.1 kmCalmClear
5:54 AM11.7 °C8.9 °C83 %1013.5 hPa16.1 kmCalmClear
6:54 AM11.7 °C8.9 °C83 %1013.9 hPa16.1 kmCalmOvercast
7:18 AM12 °C10 °C88 %1014.6 hPa16.1 kmWNW (290°)7.4 km/h0 mmRainLight Rain
7:54 AM12.2 °C10 °C86 %1015.6 hPa4.8 kmCalm1.02 mmRainLight Rain
8:54 AM12.2 °C10.6 °C90 %1015.9 hPa4.8 kmCalm2.03 mmRainLight Rain
9:54 AM12.2 °C11.1 °C93 %1016.3 hPa3.2 kmCalm2.79 mmRainRain
10:51 AM13 °C12 °C94 %1014.6 hPa9.7 kmESE (120°)9.3 km/h1.52 mmOvercast
10:54 AM13.3 °C11.7 °C90 %1014.6 hPa9.7 kmSE (130°)9.3 km/h1.52 mmOvercast
11:54 AM13.9 °C12.2 °C89 %1013.5 hPa8 kmEast (80°)7.4 km/h1.02 mmOvercast
12:24 PM14 °C12 °C88 %1013.2 hPa8 kmEast (100°)5.6 km/hOvercast
12:54 PM14.4 °C12.2 °C87 %1012.9 hPa11.3 kmCalmOvercast
1:54 PM15 °C12.8 °C87 %1012.5 hPa9.7 kmSSW (210°)9.3 km/h0 mmRainLight Rain
2:11 PM14 °C12 °C88 %1012.5 hPa9.7 kmSSW (210°)5.6 km/h0 mmOvercast
2:54 PM14.4 °C12.2 °C87 %1012.5 hPa9.7 kmWest (270°)7.4 km/h0.25 mmRainLight Rain
3:54 PM7.8 °C5.6 °C86 %1013.5 hPa8 kmNW (310°)20.4 km/h35.2 km/h0.51 mmRainLight Rain
4:04 PM7 °C6 °C93 %1013.2 hPa16.1 kmNW (320°)20.4 km/h31.5 km/h0 mmRain-ThunderstormLight Rain
4:19 PM7 °C5 °C87 %1013.2 hPa16.1 kmNNW (330°)16.7 km/h0 mmThunderstormOvercast
4:54 PM6.1 °C4.4 °C89 %1013.2 hPa6.4 kmNNW (330°)20.4 km/h35.2 km/h0 mmRain-ThunderstormLight Rain
5:05 PM6 °C4 °C87 %1013.5 hPa3.2 kmNNW (330°)20.4 km/h0.25 mmRainLight Rain
5:39 PM6 °C4 °C87 %1013.5 hPa6.4 kmNW (320°)24.1 km/h33.3 km/h1.27 mmRainRain
5:54 PM5.6 °C3.3 °C85 %1013.9 hPa16.1 kmNNW (330°)18.5 km/h1.27 mmRainLight Rain
6:54 PM5.6 °C3.3 °C85 %1014.2 hPa11.3 kmNNW (340°)16.7 km/h1.02 mmRainLight Rain
7:54 PM5 °C3.3 °C89 %1015.6 hPa6.4 kmNW (310°)11.1 km/h2.03 mmRainRain
8:54 PM5 °C3.3 °C89 %1015.9 hPa12.9 kmNW (320°)22.2 km/h1.02 mmRainLight Rain
9:54 PM5 °C3.3 °C89 %1016.6 hPa16.1 kmNNW (330°)16.7 km/h0.76 mmOvercast
10:27 PM5 °C3 °C87 %1016.6 hPa6.4 kmNW (320°)9.3 km/h0.76 mmRainRain
10:54 PM4.4 °C2.8 °C89 %1017.6 hPa14.5 kmNW (310°)18.5 km/h1.02 mmRainLight Rain
10:56 PM4 °C3 °C93 %1017.3 hPa16.1 kmNW (310°)16.7 km/h0 mmRainLight Rain
11:12 PM4 °C3 °C93 %1017.3 hPa12.9 kmNW (320°)16.7 km/h0 mmRainLight Rain
11:51 PM4 °C3 °C93 %1016.9 hPa16.1 kmNNW (340°)14.8 km/h0.25 mmOvercast
11:54 PM4.4 °C2.8 °C89 %1017.3 hPa16.1 kmNNW (330°)16.7 km/h0.25 mmOvercast
Hourly data recorded from KSUS, located 0 kilometers away from St. Louis, Missouri







STORIES FROM OUR PARTNERS